Time,TemperatureF,DewpointF,PressureIn,WindDirection,WindDirectionDegrees,WindSpeedMPH,WindSpeedGustMPH,Humidity,HourlyPrecipIn,Conditions,Clouds,dailyrainin,SoftwareType,DateUTC
2013-09-13 00:04:00,64.9,44.7,29.92,NW,305,0.0,0.0,48,0.00,,,0.00,WUHU216WMR968SP,2013-09-13 07:04:00,
2013-09-13 00:09:00,64.9,44.7,29.92,NW,305,0.0,0.0,48,0.00,,,0.00,WUHU216WMR968SP,2013-09-13 07:09:00,
2013-09-13 00:14:00,65.1,44.9,29.92,NW,305,0.0,0.0,48,0.00,,,0.00,WUHU216WMR968SP,2013-09-13 07:14:00,
2013-09-13 00:19:00,65.5,45.3,29.92,NW,305,0.0,0.0,48,0.00,,,0.00,WUHU216WMR968SP,2013-09-13 07:19:00,
2013-09-13 00:24:00,65.5,45.3,29.92,NW,305,0.0,0.0,48,0.00,,,0.00,WUHU216WMR968SP,2013-09-13 07:24:00,
2013-09-13 00:29:00,65.5,45.3,29.92,NW,305,0.0,0.0,48,0.00,,,0.00,WUHU216WMR968SP,2013-09-13 07:29:00,
2013-09-13 00:34:00,65.5,45.3,29.92,NW,305,0.0,0.0,48,0.00,,,0.00,WUHU216WMR968SP,2013-09-13 07:34:00,
2013-09-13 00:39:00,65.5,45.3,29.92,NW,305,0.0,0.0,48,0.00,,,0.00,WUHU216WMR968SP,2013-09-13 07:39:00,
2013-09-13 00:44:00,65.5,45.3,29.92,NW,305,0.0,0.0,48,0.00,,,0.00,WUHU216WMR968SP,2013-09-13 07:44:00,
2013-09-13 00:49:00,65.5,45.3,29.92,NW,305,0.0,0.0,48,0.00,,,0.00,WUHU216WMR968SP,2013-09-13 07:49:00,
2013-09-13 00:54:00,65.5,45.3,29.92,NW,305,0.0,0.0,48,0.00,,,0.00,WUHU216WMR968SP,2013-09-13 07:54:00,
2013-09-13 00:59:00,65.5,45.3,29.92,NW,305,0.0,0.0,48,0.00,,,0.00,WUHU216WMR968SP,2013-09-13 07:59:00,
2013-09-13 01:04:00,65.7,45.5,29.92,NW,305,0.0,0.0,48,0.00,,,0.00,WUHU216WMR968SP,2013-09-13 08:04:00,
2013-09-13 01:09:00,65.7,45.5,29.92,NW,305,0.0,0.0,48,0.00,,,0.00,WUHU216WMR968SP,2013-09-13 08:09:00,
2013-09-13 01:14:00,65.5,45.3,29.92,NW,305,0.0,0.0,48,0.00,,,0.00,WUHU216WMR968SP,2013-09-13 08:14:00,
2013-09-13 01:19:00,65.3,45.1,29.92,NW,305,0.0,0.0,48,0.00,,,0.00,WUHU216WMR968SP,2013-09-13 08:19:00,
2013-09-13 01:24:00,65.1,46.0,29.92,NW,305,0.0,0.0,50,0.00,,,0.00,WUHU216WMR968SP,2013-09-13 08:24:00,
2013-09-13 01:29:00,64.9,45.8,29.92,NW,305,0.0,0.0,50,0.00,,,0.00,WUHU216WMR968SP,2013-09-13 08:29:00,
2013-09-13 01:34:00,64.8,45.8,29.92,NW,305,0.0,0.0,50,0.00,,,0.00,WUHU216WMR968SP,2013-09-13 08:34:00,
2013-09-13 01:39:00,64.6,45.6,29.92,NW,305,0.0,0.0,50,0.00,,,0.00,WUHU216WMR968SP,2013-09-13 08:39:00,
2013-09-13 01:44:00,64.4,44.3,29.92,NW,305,0.0,0.0,48,0.00,,,0.00,WUHU216WMR968SP,2013-09-13 08:44:00,
2013-09-13 01:49:00,64.6,44.5,29.92,NW,305,0.0,0.0,48,0.00,,,0.00,WUHU216WMR968SP,2013-09-13 08:49:00,
2013-09-13 01:54:00,64.8,44.6,29.92,NW,305,0.0,0.0,48,0.00,,,0.00,WUHU216WMR968SP,2013-09-13 08:54:00,
2013-09-13 01:59:00,64.8,44.6,29.89,NW,305,0.0,0.0,48,0.00,,,0.00,WUHU216WMR968SP,2013-09-13 08:59:00,
2013-09-13 02:04:00,64.8,44.6,29.89,NW,305,0.0,0.0,48,0.00,,,0.00,WUHU216WMR968SP,2013-09-13 09:04:00,
2013-09-13 02:09:00,64.8,44.6,29.89,NW,305,0.0,0.0,48,0.00,,,0.00,WUHU216WMR968SP,2013-09-13 09:09:00,
2013-09-13 02:14:00,64.9,44.7,29.89,NW,305,0.0,0.0,48,0.00,,,0.00,WUHU216WMR968SP,2013-09-13 09:14:00,
2013-09-13 02:19:00,64.8,44.6,29.89,NW,305,0.0,0.0,48,0.00,,,0.00,WUHU216WMR968SP,2013-09-13 09:19:00,
2013-09-13 02:24:00,64.4,44.3,29.89,NW,305,0.0,0.0,48,0.00,,,0.00,WUHU216WMR968SP,2013-09-13 09:24:00,
2013-09-13 02:29:00,63.9,43.8,29.89,NW,305,0.0,0.0,48,0.00,,,0.00,WUHU216WMR968SP,2013-09-13 09:29:00,
2013-09-13 02:34:00,63.7,43.6,29.89,NW,305,0.0,0.0,48,0.00,,,0.00,WUHU216WMR968SP,2013-09-13 09:34:00,
2013-09-13 02:39:00,63.7,43.6,29.89,NW,305,0.0,0.0,48,0.00,,,0.00,WUHU216WMR968SP,2013-09-13 09:39:00,
2013-09-13 02:44:00,63.9,43.8,29.89,NW,305,0.0,0.0,48,0.00,,,0.00,WUHU216WMR968SP,2013-09-13 09:44:00,
2013-09-13 02:49:00,63.9,43.8,29.89,NW,305,0.0,0.0,48,0.00,,,0.00,WUHU216WMR968SP,2013-09-13 09:49:00,
2013-09-13 02:54:00,63.7,43.6,29.89,NW,305,0.0,0.0,48,0.00,,,0.00,WUHU216WMR968SP,2013-09-13 09:54:00,
2013-09-13 02:59:00,63.7,43.6,29.89,NW,305,0.0,0.0,48,0.00,,,0.00,WUHU216WMR968SP,2013-09-13 09:59:00,
2013-09-13 03:04:00,64.0,43.9,29.89,NW,305,0.0,0.0,48,0.00,,,0.00,WUHU216WMR968SP,2013-09-13 10:04:00,
2013-09-13 03:09:00,64.2,44.1,29.89,NW,305,0.0,0.0,48,0.00,,,0.00,WUHU216WMR968SP,2013-09-13 10:09:00,
2013-09-13 03:14:00,64.4,44.3,29.89,NW,305,0.0,0.0,48,0.00,,,0.00,WUHU216WMR968SP,2013-09-13 10:14:00,
2013-09-13 03:19:00,64.2,44.1,29.89,NW,305,0.0,0.0,48,0.00,,,0.00,WUHU216WMR968SP,2013-09-13 10:19:00,
2013-09-13 03:24:00,64.2,45.7,29.89,NW,305,0.0,0.0,51,0.00,,,0.00,WUHU216WMR968SP,2013-09-13 10:24:00,
2013-09-13 03:29:00,64.0,45.5,29.89,NW,305,0.0,0.0,51,0.00,,,0.00,WUHU216WMR968SP,2013-09-13 10:29:00,
2013-09-13 03:34:00,63.9,45.5,29.89,NW,305,0.0,0.0,51,0.00,,,0.00,WUHU216WMR968SP,2013-09-13 10:34:00,
2013-09-13 03:39:00,63.9,45.5,29.89,NW,309,0.0,0.0,51,0.00,,,0.00,WUHU216WMR968SP,2013-09-13 10:39:00,
2013-09-13 03:44:00,63.7,45.3,29.89,NW,309,0.0,0.0,51,0.00,,,0.00,WUHU216WMR968SP,2013-09-13 10:44:00,
2013-09-13 03:49:00,63.7,45.3,29.89,NW,309,0.0,0.0,51,0.00,,,0.00,WUHU216WMR968SP,2013-09-13 10:49:00,
2013-09-13 03:54:00,63.5,45.1,29.89,NW,309,0.0,0.0,51,0.00,,,0.00,WUHU216WMR968SP,2013-09-13 10:54:00,
2013-09-13 03:59:00,63.3,45.9,29.89,NW,309,0.0,0.0,53,0.00,,,0.00,WUHU216WMR968SP,2013-09-13 10:59:00,
2013-09-13 04:04:00,63.3,45.9,29.89,NW,309,0.0,0.0,53,0.00,,,0.00,WUHU216WMR968SP,2013-09-13 11:04:00,
2013-09-13 04:09:00,63.1,45.8,29.89,NW,309,0.0,0.0,53,0.00,,,0.00,WUHU216WMR968SP,2013-09-13 11:09:00,
2013-09-13 04:14:00,62.8,44.4,29.89,NW,309,0.0,0.0,51,0.00,,,0.00,WUHU216WMR968SP,2013-09-13 11:14:00,
2013-09-13 04:19:00,63.0,44.6,29.89,NW,309,0.0,0.0,51,0.00,,,0.00,WUHU216WMR968SP,2013-09-13 11:19:00,
2013-09-13 04:24:00,62.8,44.4,29.89,NW,309,0.0,0.0,51,0.00,,,0.00,WUHU216WMR968SP,2013-09-13 11:24:00,
2013-09-13 04:29:00,62.8,45.5,29.89,NW,309,0.0,0.0,53,0.00,,,0.00,WUHU216WMR968SP,2013-09-13 11:29:00,
2013-09-13 04:34:00,62.8,45.5,29.89,NW,309,0.0,0.0,53,0.00,,,0.00,WUHU216WMR968SP,2013-09-13 11:34:00,
2013-09-13 04:39:00,62.4,45.6,29.89,NW,309,0.0,0.0,54,0.00,,,0.00,WUHU216WMR968SP,2013-09-13 11:39:00,
2013-09-13 04:44:00,61.9,45.1,29.86,NW,309,0.0,0.0,54,0.00,,,0.00,WUHU216WMR968SP,2013-09-13 11:44:00,
2013-09-13 04:49:00,61.7,45.0,29.86,NW,309,0.0,0.0,54,0.00,,,0.00,WUHU216WMR968SP,2013-09-13 11:49:00,
2013-09-13 04:54:00,61.7,45.0,29.86,NW,309,0.0,0.0,54,0.00,,,0.00,WUHU216WMR968SP,2013-09-13 11:54:00,
2013-09-13 04:59:00,61.9,45.1,29.89,NW,309,0.0,0.0,54,0.00,,,0.00,WUHU216WMR968SP,2013-09-13 11:59:00,
2013-09-13 05:04:00,62.1,45.3,29.89,NW,309,0.0,0.0,54,0.00,,,0.00,WUHU216WMR968SP,2013-09-13 12:04:00,
2013-09-13 05:09:00,62.4,45.6,29.89,NW,309,0.0,0.0,54,0.00,,,0.00,WUHU216WMR968SP,2013-09-13 12:09:00,
2013-09-13 05:14:00,62.4,45.6,29.89,NW,309,0.0,0.0,54,0.00,,,0.00,WUHU216WMR968SP,2013-09-13 12:14:00,
2013-09-13 05:19:00,62.4,46.1,29.89,NW,309,0.0,0.0,55,0.00,,,0.00,WUHU216WMR968SP,2013-09-13 12:19:00,
2013-09-13 05:24:00,62.4,46.1,29.89,NW,309,0.0,0.0,55,0.00,,,0.00,WUHU216WMR968SP,2013-09-13 12:24:00,
2013-09-13 05:29:00,62.2,45.9,29.89,NW,309,0.0,0.0,55,0.00,,,0.00,WUHU216WMR968SP,2013-09-13 12:29:00,
2013-09-13 05:34:00,62.1,45.8,29.89,NW,309,0.0,0.0,55,0.00,,,0.00,WUHU216WMR968SP,2013-09-13 12:34:00,
2013-09-13 05:39:00,61.9,45.6,29.89,NW,309,0.0,0.0,55,0.00,,,0.00,WUHU216WMR968SP,2013-09-13 12:39:00,
2013-09-13 05:44:00,61.9,45.6,29.89,NW,309,0.0,0.0,55,0.00,,,0.00,WUHU216WMR968SP,2013-09-13 12:44:00,
2013-09-13 05:49:00,61.9,45.6,29.89,NW,309,0.0,0.0,55,0.00,,,0.00,WUHU216WMR968SP,2013-09-13 12:49:00,
2013-09-13 05:54:00,61.9,45.6,29.89,NW,309,0.0,0.0,55,0.00,,,0.00,WUHU216WMR968SP,2013-09-13 12:54:00,
2013-09-13 05:59:00,61.7,45.5,29.89,NW,309,0.0,0.0,55,0.00,,,0.00,WUHU216WMR968SP,2013-09-13 12:59:00,
2013-09-13 06:04:00,61.3,45.1,29.89,NW,309,0.0,0.0,55,0.00,,,0.00,WUHU216WMR968SP,2013-09-13 13:04:00,
2013-09-13 06:09:00,61.2,45.0,29.89,NW,309,0.0,0.0,55,0.00,,,0.00,WUHU216WMR968SP,2013-09-13 13:09:00,
2013-09-13 06:14:00,61.2,45.5,29.89,NW,309,0.0,0.0,56,0.00,,,0.00,WUHU216WMR968SP,2013-09-13 13:14:00,
2013-09-13 06:19:00,61.3,45.6,29.89,NW,309,0.0,0.0,56,0.00,,,0.00,WUHU216WMR968SP,2013-09-13 13:19:00,
2013-09-13 06:24:00,61.3,45.6,29.89,NW,309,0.0,0.0,56,0.00,,,0.00,WUHU216WMR968SP,2013-09-13 13:24:00,
2013-09-13 06:29:00,61.3,45.6,29.89,NW,309,0.0,0.0,56,0.00,,,0.00,WUHU216WMR968SP,2013-09-13 13:29:00,
2013-09-13 06:34:00,61.2,45.5,29.89,NW,309,0.0,0.0,56,0.00,,,0.00,WUHU216WMR968SP,2013-09-13 13:34:00,
2013-09-13 06:39:00,61.0,45.3,29.89,NW,309,0.0,0.0,56,0.00,,,0.00,WUHU216WMR968SP,2013-09-13 13:39:00,
2013-09-13 06:44:00,61.0,45.8,29.89,NW,309,0.0,0.0,57,0.00,,,0.00,WUHU216WMR968SP,2013-09-13 13:44:00,
2013-09-13 06:49:00,61.2,46.0,29.89,NW,309,0.0,0.0,57,0.00,,,0.00,WUHU216WMR968SP,2013-09-13 13:49:00,
2013-09-13 06:54:00,61.5,46.2,29.89,NW,309,0.0,0.0,57,0.00,,,0.00,WUHU216WMR968SP,2013-09-13 13:54:00,
2013-09-13 06:59:00,61.7,46.4,29.89,NW,309,0.0,0.0,57,0.00,,,0.00,WUHU216WMR968SP,2013-09-13 13:59:00,
2013-09-13 07:04:00,61.7,46.4,29.89,NW,309,0.0,0.0,57,0.00,,,0.00,WUHU216WMR968SP,2013-09-13 14:04:00,
2013-09-13 07:09:00,61.9,46.6,29.89,NW,309,0.0,0.0,57,0.00,,,0.00,WUHU216WMR968SP,2013-09-13 14:09:00,
2013-09-13 07:14:00,61.9,46.6,29.86,NW,309,0.0,0.0,57,0.00,,,0.00,WUHU216WMR968SP,2013-09-13 14:14:00,
2013-09-13 07:19:00,62.2,46.9,29.86,NW,309,0.0,0.0,57,0.00,,,0.00,WUHU216WMR968SP,2013-09-13 14:19:00,
2013-09-13 07:24:00,62.4,47.1,29.86,NW,309,0.0,0.0,57,0.00,,,0.00,WUHU216WMR968SP,2013-09-13 14:24:00,
2013-09-13 07:29:00,62.6,46.8,29.89,NW,309,0.0,0.0,56,0.00,,,0.00,WUHU216WMR968SP,2013-09-13 14:29:00,
2013-09-13 07:34:00,63.0,47.2,29.89,NW,309,0.0,0.0,56,0.00,,,0.00,WUHU216WMR968SP,2013-09-13 14:34:00,
2013-09-13 07:39:00,63.1,47.3,29.89,NW,309,0.0,0.0,56,0.00,,,0.00,WUHU216WMR968SP,2013-09-13 14:39:00,
2013-09-13 07:44:00,63.9,48.0,29.89,NW,309,0.0,0.0,56,0.00,,,0.00,WUHU216WMR968SP,2013-09-13 14:44:00,
2013-09-13 07:49:00,64.2,48.3,29.89,NW,309,0.0,0.0,56,0.00,,,0.00,WUHU216WMR968SP,2013-09-13 14:49:00,
2013-09-13 07:54:00,64.6,48.2,29.89,NW,309,0.0,0.0,55,0.00,,,0.00,WUHU216WMR968SP,2013-09-13 14:54:00,
2013-09-13 07:59:00,64.9,48.4,29.89,NW,308,0.0,0.0,55,0.00,,,0.00,WUHU216WMR968SP,2013-09-13 14:59:00,
2013-09-13 08:04:00,65.5,49.0,29.89,WNW,300,0.0,0.0,55,0.00,,,0.00,WUHU216WMR968SP,2013-09-13 15:04:00,
2013-09-13 08:09:00,65.8,49.3,29.89,SSW,205,0.0,0.0,55,0.00,,,0.00,WUHU216WMR968SP,2013-09-13 15:09:00,
2013-09-13 08:14:00,66.2,49.7,29.86,SSW,205,0.0,0.0,55,0.00,,,0.00,WUHU216WMR968SP,2013-09-13 15:14:00,
2013-09-13 08:19:00,66.6,50.5,29.86,SSW,205,0.0,0.0,56,0.00,,,0.00,WUHU216WMR968SP,2013-09-13 15:19:00,
2013-09-13 08:24:00,66.7,51.1,29.86,SSW,201,0.0,0.0,57,0.00,,,0.00,WUHU216WMR968SP,2013-09-13 15:24:00,
2013-09-13 08:30:00,66.9,50.8,29.89,South,181,0.0,0.0,56,0.00,,,0.00,WUHU216WMR968SP,2013-09-13 15:30:00,
2013-09-13 08:35:00,67.3,50.7,29.89,South,180,0.0,0.0,55,0.00,,,0.00,WUHU216WMR968SP,2013-09-13 15:35:00,
2013-09-13 08:40:00,67.5,50.9,29.86,South,180,0.0,0.0,55,0.00,,,0.00,WUHU216WMR968SP,2013-09-13 15:40:00,
2013-09-13 08:45:00,67.6,50.5,29.86,South,190,0.0,0.0,54,0.00,,,0.00,WUHU216WMR968SP,2013-09-13 15:45:00,
2013-09-13 08:50:00,68.2,50.5,29.86,South,191,0.0,0.0,53,0.00,,,0.00,WUHU216WMR968SP,2013-09-13 15:50:00,
2013-09-13 08:55:00,68.7,51.0,29.86,SSW,197,0.0,0.0,53,0.00,,,0.00,WUHU216WMR968SP,2013-09-13 15:55:00,
2013-09-13 09:00:00,69.3,51.0,29.86,South,189,2.2,4.0,52,0.00,,,0.00,WUHU216WMR968SP,2013-09-13 16:00:00,
2013-09-13 09:05:00,69.8,51.5,29.86,ESE,115,0.0,4.0,52,0.00,,,0.00,WUHU216WMR968SP,2013-09-13 16:05:00,
2013-09-13 09:10:00,70.3,51.9,29.86,SSE,149,0.0,3.1,52,0.00,,,0.00,WUHU216WMR968SP,2013-09-13 16:10:00,
2013-09-13 09:15:00,70.9,52.5,29.86,SSE,155,0.0,3.1,52,0.00,,,0.00,WUHU216WMR968SP,2013-09-13 16:15:00,
2013-09-13 09:20:00,71.2,51.1,29.86,ESE,118,2.2,3.6,49,0.00,,,0.00,WUHU216WMR968SP,2013-09-13 16:20:00,
2013-09-13 09:25:00,71.8,51.7,29.86,South,169,3.1,4.0,49,0.00,,,0.00,WUHU216WMR968SP,2013-09-13 16:25:00,
2013-09-13 09:30:00,72.1,51.9,29.86,SW,223,0.0,4.0,49,0.00,,,0.00,WUHU216WMR968SP,2013-09-13 16:30:00,
2013-09-13 09:35:00,72.5,52.3,29.86,South,180,0.0,4.0,49,0.00,,,0.00,WUHU216WMR968SP,2013-09-13 16:35:00,
2013-09-13 09:40:00,72.9,52.7,29.86,SE,143,2.2,4.0,49,0.00,,,0.00,WUHU216WMR968SP,2013-09-13 16:40:00,
2013-09-13 09:45:00,73.2,52.9,29.86,SW,224,3.1,4.0,49,0.00,,,0.00,WUHU216WMR968SP,2013-09-13 16:45:00,
2013-09-13 09:50:00,73.4,52.6,29.86,WSW,238,0.0,4.0,48,0.00,,,0.00,WUHU216WMR968SP,2013-09-13 16:50:00,
2013-09-13 09:55:00,73.6,52.7,29.86,SSW,204,4.0,6.3,48,0.00,,,0.00,WUHU216WMR968SP,2013-09-13 16:55:00,
2013-09-13 10:00:00,73.9,53.0,29.86,WSW,239,2.7,6.3,48,0.00,,,0.00,WUHU216WMR968SP,2013-09-13 17:00:00,
2013-09-13 10:05:00,74.5,52.4,29.86,WSW,249,3.6,6.3,46,0.00,,,0.00,WUHU216WMR968SP,2013-09-13 17:05:00,
2013-09-13 10:10:00,74.8,52.6,29.86,SSW,203,3.1,6.3,46,0.00,,,0.00,WUHU216WMR968SP,2013-09-13 17:10:00,
2013-09-13 10:15:00,75.2,52.4,29.86,SE,126,2.7,5.8,45,0.00,,,0.00,WUHU216WMR968SP,2013-09-13 17:15:00,
2013-09-13 10:20:00,75.9,53.0,29.86,South,171,3.1,4.5,45,0.00,,,0.00,WUHU216WMR968SP,2013-09-13 17:20:00,
2013-09-13 10:25:00,76.5,53.6,29.86,WSW,242,2.7,5.4,45,0.00,,,0.00,WUHU216WMR968SP,2013-09-13 17:25:00,
2013-09-13 10:30:00,76.5,53.6,29.86,South,191,2.7,5.4,45,0.00,,,0.00,WUHU216WMR968SP,2013-09-13 17:30:00,
2013-09-13 10:35:00,76.6,53.7,29.86,SW,229,3.1,4.0,45,0.00,,,0.00,WUHU216WMR968SP,2013-09-13 17:35:00,
2013-09-13 10:40:00,77.2,54.2,29.86,SW,233,3.6,5.8,45,0.00,,,0.00,WUHU216WMR968SP,2013-09-13 17:40:00,
2013-09-13 10:45:00,77.2,54.2,29.86,NW,306,3.1,5.8,45,0.00,,,0.00,WUHU216WMR968SP,2013-09-13 17:45:00,
2013-09-13 10:50:00,77.4,54.4,29.86,WSW,238,3.6,5.8,45,0.00,,,0.00,WUHU216WMR968SP,2013-09-13 17:50:00,
2013-09-13 10:55:00,77.7,54.7,29.86,WSW,237,3.1,6.3,45,0.00,,,0.00,WUHU216WMR968SP,2013-09-13 17:55:00,
2013-09-13 11:00:00,78.3,55.2,29.83,West,260,3.6,6.3,45,0.00,,,0.00,WUHU216WMR968SP,2013-09-13 18:00:00,
2013-09-13 11:05:00,78.4,55.3,29.83,WSW,243,3.6,6.3,45,0.00,,,0.00,WUHU216WMR968SP,2013-09-13 18:05:00,
2013-09-13 11:10:00,78.4,55.3,29.83,South,189,3.1,6.3,45,0.00,,,0.00,WUHU216WMR968SP,2013-09-13 18:10:00,
2013-09-13 11:15:00,79.0,55.9,29.83,SW,222,5.4,8.3,45,0.00,,,0.00,WUHU216WMR968SP,2013-09-13 18:15:00,
2013-09-13 11:20:00,79.5,56.3,29.83,SSE,161,2.2,8.3,45,0.00,,,0.00,WUHU216WMR968SP,2013-09-13 18:20:00,
2013-09-13 11:25:00,80.1,56.9,29.83,SSW,204,4.5,6.3,45,0.00,,,0.00,WUHU216WMR968SP,2013-09-13 18:25:00,
2013-09-13 11:30:00,80.2,57.0,29.83,NNW,345,3.1,7.6,45,0.00,,,0.00,WUHU216WMR968SP,2013-09-13 18:30:00,
2013-09-13 11:35:00,79.9,56.7,29.83,SW,235,3.1,7.6,45,0.00,,,0.00,WUHU216WMR968SP,2013-09-13 18:35:00,
2013-09-13 11:40:00,80.8,56.9,29.83,SW,233,6.3,8.1,44,0.00,,,0.00,WUHU216WMR968SP,2013-09-13 18:40:00,
2013-09-13 11:45:00,81.0,57.0,29.83,SW,232,3.6,8.1,44,0.00,,,0.00,WUHU216WMR968SP,2013-09-13 18:45:00,
2013-09-13 11:50:00,81.5,57.5,29.83,SW,230,3.6,6.3,44,0.00,,,0.00,WUHU216WMR968SP,2013-09-13 18:50:00,
2013-09-13 11:55:00,81.9,57.9,29.81,SSW,200,3.1,6.3,44,0.00,,,0.00,WUHU216WMR968SP,2013-09-13 18:55:00,
2013-09-13 12:00:00,82.4,58.3,29.81,ESE,120,2.7,5.8,44,0.00,,,0.00,WUHU216WMR968SP,2013-09-13 19:00:00,
2013-09-13 12:05:00,82.2,58.1,29.81,WNW,291,3.1,5.8,44,0.00,,,0.00,WUHU216WMR968SP,2013-09-13 19:05:00,
2013-09-13 12:10:00,82.4,58.3,29.81,South,182,4.9,7.6,44,0.00,,,0.00,WUHU216WMR968SP,2013-09-13 19:10:00,
2013-09-13 12:15:00,82.8,58.7,29.81,WSW,250,2.2,7.6,44,0.00,,,0.00,WUHU216WMR968SP,2013-09-13 19:15:00,
2013-09-13 12:20:00,83.3,59.1,29.81,SE,140,4.5,6.3,44,0.00,,,0.00,WUHU216WMR968SP,2013-09-13 19:20:00,
2013-09-13 12:25:00,83.1,58.9,29.81,SSW,201,2.2,6.3,44,0.00,,,0.00,WUHU216WMR968SP,2013-09-13 19:25:00,
2013-09-13 12:30:00,83.3,59.1,29.81,SW,223,3.1,6.7,44,0.00,,,0.00,WUHU216WMR968SP,2013-09-13 19:30:00,
2013-09-13 12:35:00,83.7,59.5,29.81,South,189,2.7,7.6,44,0.00,,,0.00,WUHU216WMR968SP,2013-09-13 19:35:00,
2013-09-13 12:40:00,83.5,59.3,29.81,ESE,105,3.6,7.6,44,0.00,,,0.00,WUHU216WMR968SP,2013-09-13 19:40:00,
2013-09-13 12:45:00,84.2,59.3,29.81,South,175,4.0,6.3,43,0.00,,,0.00,WUHU216WMR968SP,2013-09-13 19:45:00,
2013-09-13 12:50:00,84.2,59.3,29.81,SW,223,2.7,8.1,43,0.00,,,0.00,WUHU216WMR968SP,2013-09-13 19:50:00,
2013-09-13 12:55:00,84.4,59.5,29.78,SSW,197,3.6,8.1,43,0.00,,,0.00,WUHU216WMR968SP,2013-09-13 19:55:00,
2013-09-13 13:00:00,84.4,59.5,29.78,WSW,255,2.7,5.8,43,0.00,,,0.00,WUHU216WMR968SP,2013-09-13 20:00:00,
2013-09-13 13:05:00,83.8,59.6,29.78,SW,231,4.5,6.3,44,0.00,,,0.00,WUHU216WMR968SP,2013-09-13 20:05:00,
2013-09-13 13:10:00,84.0,59.8,29.78,South,183,4.5,6.3,44,0.00,,,0.00,WUHU216WMR968SP,2013-09-13 20:10:00,
2013-09-13 13:15:00,84.7,59.7,29.78,WSW,256,3.1,5.8,43,0.00,,,0.00,WUHU216WMR968SP,2013-09-13 20:15:00,
2013-09-13 13:20:00,84.9,59.9,29.78,South,190,4.0,7.6,43,0.00,,,0.00,WUHU216WMR968SP,2013-09-13 20:20:00,
2013-09-13 13:25:00,85.3,60.3,29.78,West,264,2.2,7.6,43,0.00,,,0.00,WUHU216WMR968SP,2013-09-13 20:25:00,
2013-09-13 13:30:00,85.6,60.6,29.78,South,169,3.6,7.2,43,0.00,,,0.00,WUHU216WMR968SP,2013-09-13 20:30:00,
2013-09-13 13:35:00,85.8,60.7,29.78,SSW,209,3.1,8.1,43,0.00,,,0.00,WUHU216WMR968SP,2013-09-13 20:35:00,
2013-09-13 13:40:00,86.5,61.4,29.78,SSE,165,4.5,8.1,43,0.00,,,0.00,WUHU216WMR968SP,2013-09-13 20:40:00,
2013-09-13 13:45:00,86.9,61.7,29.78,SW,234,4.9,8.1,43,0.00,,,0.00,WUHU216WMR968SP,2013-09-13 20:45:00,
2013-09-13 13:50:00,86.4,61.3,29.78,South,178,3.6,8.1,43,0.00,,,0.00,WUHU216WMR968SP,2013-09-13 20:50:00,
2013-09-13 13:55:00,86.5,61.4,29.75,WSW,243,5.8,7.6,43,0.00,,,0.00,WUHU216WMR968SP,2013-09-13 20:55:00,
2013-09-13 14:00:00,86.4,61.3,29.75,WSW,240,4.5,7.6,43,0.00,,,0.00,WUHU216WMR968SP,2013-09-13 21:00:00,
2013-09-13 14:05:00,85.8,60.7,29.75,SW,224,4.0,7.6,43,0.00,,,0.00,WUHU216WMR968SP,2013-09-13 21:05:00,
2013-09-13 14:10:00,86.4,61.3,29.75,SSW,207,5.4,7.6,43,0.00,,,0.00,WUHU216WMR968SP,2013-09-13 21:10:00,
2013-09-13 14:15:00,86.7,61.5,29.75,SW,236,2.7,7.6,43,0.00,,,0.00,WUHU216WMR968SP,2013-09-13 21:15:00,
2013-09-13 14:20:00,86.9,61.7,29.75,SW,233,4.0,6.7,43,0.00,,,0.00,WUHU216WMR968SP,2013-09-13 21:20:00,
2013-09-13 14:25:00,87.1,61.9,29.75,SW,218,4.0,6.7,43,0.00,,,0.00,WUHU216WMR968SP,2013-09-13 21:25:00,
2013-09-13 14:30:00,87.4,62.2,29.75,NNW,332,2.7,6.3,43,0.00,,,0.00,WUHU216WMR968SP,2013-09-13 21:30:00,
2013-09-13 14:35:00,87.3,62.1,29.75,SE,140,3.6,7.6,43,0.00,,,0.00,WUHU216WMR968SP,2013-09-13 21:35:00,
2013-09-13 14:40:00,87.6,62.4,29.75,SW,232,6.3,8.1,43,0.00,,,0.00,WUHU216WMR968SP,2013-09-13 21:40:00,
2013-09-13 14:45:00,87.3,62.1,29.75,WNW,283,5.4,8.1,43,0.00,,,0.00,WUHU216WMR968SP,2013-09-13 21:45:00,
2013-09-13 14:50:00,86.9,61.7,29.75,South,187,3.1,8.3,43,0.00,,,0.00,WUHU216WMR968SP,2013-09-13 21:50:00,
2013-09-13 14:55:00,86.7,61.5,29.75,SSE,153,4.0,8.3,43,0.00,,,0.00,WUHU216WMR968SP,2013-09-13 21:55:00,
2013-09-13 15:00:00,87.1,61.9,29.72,WSW,241,3.6,6.7,43,0.00,,,0.00,WUHU216WMR968SP,2013-09-13 22:00:00,
2013-09-13 15:05:00,87.4,62.2,29.72,West,259,3.1,8.1,43,0.00,,,0.00,WUHU216WMR968SP,2013-09-13 22:05:00,
2013-09-13 15:10:00,87.6,62.4,29.72,SW,224,5.4,8.7,43,0.00,,,0.00,WUHU216WMR968SP,2013-09-13 22:10:00,
2013-09-13 15:15:00,87.4,62.2,29.72,SSW,205,4.9,8.7,43,0.00,,,0.00,WUHU216WMR968SP,2013-09-13 22:15:00,
2013-09-13 15:20:00,87.1,61.9,29.72,WSW,240,3.1,7.2,43,0.00,,,0.00,WUHU216WMR968SP,2013-09-13 22:20:00,
2013-09-13 15:25:00,87.1,61.9,29.72,SW,234,6.7,8.3,43,0.00,,,0.00,WUHU216WMR968SP,2013-09-13 22:25:00,
2013-09-13 15:30:00,87.3,62.1,29.72,SW,233,4.5,8.7,43,0.00,,,0.00,WUHU216WMR968SP,2013-09-13 22:30:00,
2013-09-13 15:35:00,87.3,62.1,29.72,NW,314,6.7,8.7,43,0.00,,,0.00,WUHU216WMR968SP,2013-09-13 22:35:00,
2013-09-13 15:40:00,87.1,61.9,29.72,SW,232,5.4,8.1,43,0.00,,,0.00,WUHU216WMR968SP,2013-09-13 22:40:00,
2013-09-13 15:45:00,87.1,61.9,29.72,SSW,203,3.6,7.6,43,0.00,,,0.00,WUHU216WMR968SP,2013-09-13 22:45:00,
2013-09-13 15:50:00,87.1,61.9,29.72,WSW,240,5.4,8.7,43,0.00,,,0.00,WUHU216WMR968SP,2013-09-13 22:50:00,
2013-09-13 15:55:00,87.1,61.9,29.72,SSW,212,7.2,10.1,43,0.00,,,0.00,WUHU216WMR968SP,2013-09-13 22:55:00,
2013-09-13 16:00:00,87.1,61.9,29.72,WSW,253,5.4,10.1,43,0.00,,,0.00,WUHU216WMR968SP,2013-09-13 23:00:00,
2013-09-13 16:05:00,87.1,61.9,29.72,SW,214,3.6,7.2,43,0.00,,,0.00,WUHU216WMR968SP,2013-09-13 23:05:00,
2013-09-13 16:10:00,87.1,61.9,29.72,SW,220,6.7,8.1,43,0.00,,,0.00,WUHU216WMR968SP,2013-09-13 23:10:00,
2013-09-13 16:15:00,87.1,61.9,29.72,WSW,237,4.0,8.1,43,0.00,,,0.00,WUHU216WMR968SP,2013-09-13 23:15:00,
2013-09-13 16:20:00,86.9,61.7,29.72,SSW,194,4.9,8.3,43,0.00,,,0.00,WUHU216WMR968SP,2013-09-13 23:20:00,
2013-09-13 16:25:00,86.7,61.5,29.72,WSW,249,0.0,8.3,43,0.00,,,0.00,WUHU216WMR968SP,2013-09-13 23:25:00,
2013-09-13 16:30:00,86.4,61.3,29.72,WSW,249,2.2,6.3,43,0.00,,,0.00,WUHU216WMR968SP,2013-09-13 23:30:00,
2013-09-13 16:35:00,86.4,61.3,29.72,SW,224,5.8,8.7,43,0.00,,,0.00,WUHU216WMR968SP,2013-09-13 23:35:00,
2013-09-13 16:40:00,86.5,61.4,29.72,NW,312,3.1,8.7,43,0.00,,,0.00,WUHU216WMR968SP,2013-09-13 23:40:00,
2013-09-13 16:45:00,86.5,61.4,29.72,WSW,245,5.4,6.7,43,0.00,,,0.00,WUHU216WMR968SP,2013-09-13 23:45:00,
2013-09-13 16:50:00,86.4,61.3,29.72,SW,221,4.9,8.1,43,0.00,,,0.00,WUHU216WMR968SP,2013-09-13 23:50:00,
2013-09-13 16:55:00,86.4,61.3,29.72,South,175,4.9,8.3,43,0.00,,,0.00,WUHU216WMR968SP,2013-09-13 23:55:00,
2013-09-13 17:00:00,86.2,61.1,29.72,SW,233,4.9,8.3,43,0.00,,,0.00,WUHU216WMR968SP,2013-09-14 00:00:00,
2013-09-13 17:05:00,85.6,60.6,29.72,SW,230,5.8,8.7,43,0.00,,,0.00,WUHU216WMR968SP,2013-09-14 00:05:00,
2013-09-13 17:10:00,85.3,60.3,29.72,SW,220,4.9,8.7,43,0.00,,,0.00,WUHU216WMR968SP,2013-09-14 00:10:00,
2013-09-13 17:15:00,85.3,60.3,29.72,NW,305,5.8,8.7,43,0.00,,,0.00,WUHU216WMR968SP,2013-09-14 00:15:00,
2013-09-13 17:20:00,84.9,59.9,29.72,SSW,208,4.9,8.7,43,0.00,,,0.00,WUHU216WMR968SP,2013-09-14 00:20:00,
2013-09-13 17:25:00,84.7,59.7,29.72,SSW,202,4.0,7.6,43,0.00,,,0.00,WUHU216WMR968SP,2013-09-14 00:25:00,
2013-09-13 17:30:00,84.7,59.7,29.72,WNW,291,4.9,8.1,43,0.00,,,0.00,WUHU216WMR968SP,2013-09-14 00:30:00,
2013-09-13 17:35:00,84.2,59.3,29.72,WSW,252,4.0,8.1,43,0.00,,,0.00,WUHU216WMR968SP,2013-09-14 00:35:00,
2013-09-13 17:40:00,84.2,59.3,29.72,SSW,204,4.0,6.7,43,0.00,,,0.00,WUHU216WMR968SP,2013-09-14 00:40:00,
2013-09-13 17:45:00,84.0,59.8,29.72,WSW,246,4.5,8.1,44,0.00,,,0.00,WUHU216WMR968SP,2013-09-14 00:45:00,
2013-09-13 17:50:00,83.8,59.6,29.72,WSW,255,4.0,8.1,44,0.00,,,0.00,WUHU216WMR968SP,2013-09-14 00:50:00,
2013-09-13 17:55:00,83.8,59.6,29.72,WSW,240,3.6,6.3,44,0.00,,,0.00,WUHU216WMR968SP,2013-09-14 00:55:00,
2013-09-13 18:00:00,83.7,59.5,29.72,WSW,241,4.5,6.3,44,0.00,,,0.00,WUHU216WMR968SP,2013-09-14 01:00:00,
2013-09-13 18:05:00,83.5,59.3,29.72,West,259,4.5,6.3,44,0.00,,,0.00,WUHU216WMR968SP,2013-09-14 01:05:00,
2013-09-13 18:10:00,83.3,57.1,29.72,SSW,210,2.2,6.3,41,0.00,,,0.00,WUHU216WMR968SP,2013-09-14 01:10:00,
2013-09-13 18:15:00,83.1,56.9,29.72,SW,225,4.0,6.3,41,0.00,,,0.00,WUHU216WMR968SP,2013-09-14 01:15:00,
2013-09-13 18:20:00,82.9,56.7,29.72,SW,230,3.6,6.3,41,0.00,,,0.00,WUHU216WMR968SP,2013-09-14 01:20:00,
2013-09-13 18:25:00,82.8,56.7,29.72,South,178,4.0,5.8,41,0.00,,,0.00,WUHU216WMR968SP,2013-09-14 01:25:00,
2013-09-13 18:30:00,82.6,56.5,29.72,SW,217,2.7,5.8,41,0.00,,,0.00,WUHU216WMR968SP,2013-09-14 01:30:00,
2013-09-13 18:35:00,82.2,56.8,29.72,SSE,154,3.6,5.4,42,0.00,,,0.00,WUHU216WMR968SP,2013-09-14 01:35:00,
2013-09-13 18:40:00,82.0,56.6,29.72,SSE,157,3.1,5.4,42,0.00,,,0.00,WUHU216WMR968SP,2013-09-14 01:40:00,
2013-09-13 18:45:00,81.9,56.5,29.72,ESE,114,2.2,4.0,42,0.00,,,0.00,WUHU216WMR968SP,2013-09-14 01:45:00,
2013-09-13 18:50:00,81.5,56.2,29.72,SE,130,2.2,4.0,42,0.00,,,0.00,WUHU216WMR968SP,2013-09-14 01:50:00,
2013-09-13 18:55:00,81.1,55.8,29.72,SW,220,0.0,3.6,42,0.00,,,0.00,WUHU216WMR968SP,2013-09-14 01:55:00,
2013-09-13 19:00:00,81.0,55.7,29.72,SSE,167,0.0,2.7,42,0.00,,,0.00,WUHU216WMR968SP,2013-09-14 02:00:00,
2013-09-13 19:05:00,80.8,55.5,29.72,SSW,195,2.7,3.6,42,0.00,,,0.00,WUHU216WMR968SP,2013-09-14 02:05:00,
2013-09-13 19:10:00,80.6,55.4,29.75,South,181,2.7,3.6,42,0.00,,,0.00,WUHU216WMR968SP,2013-09-14 02:10:00,
2013-09-13 19:15:00,80.4,55.2,29.75,SSE,154,0.0,4.0,42,0.00,,,0.00,WUHU216WMR968SP,2013-09-14 02:15:00,
2013-09-13 19:20:00,80.1,54.9,29.75,SSE,151,0.0,4.0,42,0.00,,,0.00,WUHU216WMR968SP,2013-09-14 02:20:00,
2013-09-13 19:25:00,79.9,54.7,29.75,SE,131,0.0,3.6,42,0.00,,,0.00,WUHU216WMR968SP,2013-09-14 02:25:00,
2013-09-13 19:30:00,79.7,54.5,29.75,SSE,151,0.0,3.6,42,0.00,,,0.00,WUHU216WMR968SP,2013-09-14 02:30:00,
2013-09-13 19:35:00,79.3,54.2,29.75,South,177,0.0,4.0,42,0.00,,,0.00,WUHU216WMR968SP,2013-09-14 02:35:00,
2013-09-13 19:40:00,79.2,54.1,29.75,SSW,199,0.0,4.0,42,0.00,,,0.00,WUHU216WMR968SP,2013-09-14 02:40:00,
2013-09-13 19:45:00,78.8,53.7,29.75,SSE,161,0.0,4.0,42,0.00,,,0.00,WUHU216WMR968SP,2013-09-14 02:45:00,
2013-09-13 19:50:00,78.6,54.2,29.75,SE,145,2.7,3.6,43,0.00,,,0.00,WUHU216WMR968SP,2013-09-14 02:50:00,
2013-09-13 19:55:00,78.3,53.9,29.75,SE,139,0.0,3.6,43,0.00,,,0.00,WUHU216WMR968SP,2013-09-14 02:55:00,
2013-09-13 20:00:00,78.1,53.8,29.75,SW,216,0.0,3.6,43,0.00,,,0.00,WUHU216WMR968SP,2013-09-14 03:00:00,
2013-09-13 20:05:00,77.7,53.4,29.75,SE,142,0.0,3.6,43,0.00,,,0.00,WUHU216WMR968SP,2013-09-14 03:05:00,
2013-09-13 20:10:00,77.5,53.2,29.78,SE,132,0.0,3.6,43,0.00,,,0.00,WUHU216WMR968SP,2013-09-14 03:10:00,
2013-09-13 20:15:00,77.4,53.1,29.78,SE,132,0.0,2.7,43,0.00,,,0.00,WUHU216WMR968SP,2013-09-14 03:15:00,
2013-09-13 20:20:00,77.0,52.8,29.78,SE,132,0.0,0.0,43,0.00,,,0.00,WUHU216WMR968SP,2013-09-14 03:20:00,
2013-09-13 20:25:00,76.3,52.1,29.75,SE,132,0.0,0.0,43,0.00,,,0.00,WUHU216WMR968SP,2013-09-14 03:25:00,
2013-09-13 20:30:00,75.6,51.5,29.75,SE,132,0.0,0.0,43,0.00,,,0.00,WUHU216WMR968SP,2013-09-14 03:30:00,
2013-09-13 20:35:00,75.0,50.9,29.75,SE,132,0.0,0.0,43,0.00,,,0.00,WUHU216WMR968SP,2013-09-14 03:35:00,
2013-09-13 20:40:00,74.7,50.7,29.78,SE,132,0.0,0.0,43,0.00,,,0.00,WUHU216WMR968SP,2013-09-14 03:40:00,
2013-09-13 20:45:00,74.1,50.1,29.78,SE,132,0.0,0.0,43,0.00,,,0.00,WUHU216WMR968SP,2013-09-14 03:45:00,
2013-09-13 20:50:00,73.8,49.9,29.78,SE,132,0.0,0.0,43,0.00,,,0.00,WUHU216WMR968SP,2013-09-14 03:50:00,
2013-09-13 20:55:00,73.4,49.5,29.78,SE,132,0.0,0.0,43,0.00,,,0.00,WUHU216WMR968SP,2013-09-14 03:55:00,
2013-09-13 21:00:00,73.2,49.9,29.78,SE,132,0.0,0.0,44,0.00,,,0.00,WUHU216WMR968SP,2013-09-14 04:00:00,
2013-09-13 21:05:00,73.0,49.8,29.78,SE,132,0.0,0.0,44,0.00,,,0.00,WUHU216WMR968SP,2013-09-14 04:05:00,
2013-09-13 21:10:00,72.9,50.9,29.78,SE,132,0.0,0.0,46,0.00,,,0.00,WUHU216WMR968SP,2013-09-14 04:10:00,
2013-09-13 21:15:00,72.5,50.5,29.78,SE,132,0.0,0.0,46,0.00,,,0.00,WUHU216WMR968SP,2013-09-14 04:15:00,
2013-09-13 21:20:00,72.3,50.4,29.78,SE,132,0.0,0.0,46,0.00,,,0.00,WUHU216WMR968SP,2013-09-14 04:20:00,
2013-09-13 21:26:00,72.1,50.2,29.78,SE,132,0.0,0.0,46,0.00,,,0.00,WUHU216WMR968SP,2013-09-14 04:26:00,
2013-09-13 21:31:00,72.0,50.1,29.78,SE,132,0.0,0.0,46,0.00,,,0.00,WUHU216WMR968SP,2013-09-14 04:31:00,
2013-09-13 21:36:00,71.6,49.7,29.78,SE,132,0.0,0.0,46,0.00,,,0.00,WUHU216WMR968SP,2013-09-14 04:36:00,
2013-09-13 21:41:00,71.4,50.1,29.78,SE,132,0.0,0.0,47,0.00,,,0.00,WUHU216WMR968SP,2013-09-14 04:41:00,
2013-09-13 21:46:00,71.4,50.1,29.78,SE,132,0.0,0.0,47,0.00,,,0.00,WUHU216WMR968SP,2013-09-14 04:46:00,
2013-09-13 21:51:00,71.4,50.1,29.78,SE,132,0.0,0.0,47,0.00,,,0.00,WUHU216WMR968SP,2013-09-14 04:51:00,
2013-09-13 21:56:00,71.2,49.9,29.78,SE,132,0.0,0.0,47,0.00,,,0.00,WUHU216WMR968SP,2013-09-14 04:56:00,
2013-09-13 22:01:00,71.1,49.9,29.78,SE,132,0.0,0.0,47,0.00,,,0.00,WUHU216WMR968SP,2013-09-14 05:01:00,
2013-09-13 22:06:00,71.1,49.9,29.78,SE,132,0.0,0.0,47,0.00,,,0.00,WUHU216WMR968SP,2013-09-14 05:06:00,
2013-09-13 22:11:00,70.7,49.5,29.81,SE,132,0.0,0.0,47,0.00,,,0.00,WUHU216WMR968SP,2013-09-14 05:11:00,
2013-09-13 22:16:00,70.7,49.5,29.81,SE,132,0.0,0.0,47,0.00,,,0.00,WUHU216WMR968SP,2013-09-14 05:16:00,
2013-09-13 22:21:00,70.5,49.3,29.81,SE,132,0.0,0.0,47,0.00,,,0.00,WUHU216WMR968SP,2013-09-14 05:21:00,
2013-09-13 22:26:00,70.5,49.3,29.81,SE,132,0.0,0.0,47,0.00,,,0.00,WUHU216WMR968SP,2013-09-14 05:26:00,
2013-09-13 22:31:00,70.5,49.3,29.81,SE,132,0.0,0.0,47,0.00,,,0.00,WUHU216WMR968SP,2013-09-14 05:31:00,
2013-09-13 22:36:00,70.5,49.3,29.81,SE,132,0.0,0.0,47,0.00,,,0.00,WUHU216WMR968SP,2013-09-14 05:36:00,
2013-09-13 22:41:00,70.5,49.3,29.81,SE,133,0.0,0.0,47,0.00,,,0.00,WUHU216WMR968SP,2013-09-14 05:41:00,
2013-09-13 22:46:00,70.5,49.3,29.81,SE,132,0.0,0.0,47,0.00,,,0.00,WUHU216WMR968SP,2013-09-14 05:46:00,
2013-09-13 22:51:00,70.7,49.5,29.81,SE,132,0.0,0.0,47,0.00,,,0.00,WUHU216WMR968SP,2013-09-14 05:51:00,
2013-09-13 22:56:00,70.5,49.3,29.81,SE,132,0.0,0.0,47,0.00,,,0.00,WUHU216WMR968SP,2013-09-14 05:56:00,
2013-09-13 23:01:00,70.5,49.3,29.81,SE,132,0.0,0.0,47,0.00,,,0.00,WUHU216WMR968SP,2013-09-14 06:01:00,
2013-09-13 23:06:00,70.3,49.1,29.81,SE,132,0.0,0.0,47,0.00,,,0.00,WUHU216WMR968SP,2013-09-14 06:06:00,
2013-09-13 23:11:00,70.2,49.0,29.81,SE,132,0.0,0.0,47,0.00,,,0.00,WUHU216WMR968SP,2013-09-14 06:11:00,
2013-09-13 23:16:00,70.0,48.8,29.81,SE,132,0.0,0.0,47,0.00,,,0.00,WUHU216WMR968SP,2013-09-14 06:16:00,
2013-09-13 23:21:00,69.8,48.7,29.81,SE,132,0.0,0.0,47,0.00,,,0.00,WUHU216WMR968SP,2013-09-14 06:21:00,
2013-09-13 23:26:00,69.4,48.3,29.81,SE,132,0.0,0.0,47,0.00,,,0.00,WUHU216WMR968SP,2013-09-14 06:26:00,
2013-09-13 23:31:00,69.3,48.2,29.81,SE,132,0.0,0.0,47,0.00,,,0.00,WUHU216WMR968SP,2013-09-14 06:31:00,
2013-09-13 23:36:00,69.1,49.7,29.81,SE,132,0.0,0.0,50,0.00,,,0.00,WUHU216WMR968SP,2013-09-14 06:36:00,
2013-09-13 23:41:00,68.5,49.2,29.81,SE,132,0.0,0.0,50,0.00,,,0.00,WUHU216WMR968SP,2013-09-14 06:41:00,
2013-09-13 23:46:00,68.0,48.7,29.81,SE,132,0.0,0.0,50,0.00,,,0.00,WUHU216WMR968SP,2013-09-14 06:46:00,
2013-09-13 23:51:00,67.8,48.5,29.81,SE,132,0.0,0.0,50,0.00,,,0.00,WUHU216WMR968SP,2013-09-14 06:51:00,
2013-09-13 23:56:00,67.8,48.5,29.81,SE,132,0.0,0.0,50,0.00,,,0.00,WUHU216WMR968SP,2013-09-14 06:56:00,